FW6146 Weather Reports


Display with metric or nautical units.
time (UTC)temp
F
wind
direction
speed
MPH
gust
MPH
rain 1hr
in
rain 24hr
in
rain mn
in
humidity
%
barometer
mb
20260507060007 57 43 1.0 2.0 0.00 0.04 0.01 92 1005.8
20260507054951 57 303 1.0 2.0 0.00 0.04 0.01 93 1005.8
20260507053937 57 0.0 0.0 0.00 0.04 0.01 93 1005.9
20260507052955 58 329 0.0 1.0 0.00 0.04 0.01 93 1005.9
20260507051940 58 322 1.0 1.0 0.00 0.04 0.01 94 1005.8
20260507050957 58 0.0 0.0 0.00 0.04 0.01 94 1005.8
20260507045942 58 321 1.0 1.0 0.01 0.04 0.01 95 1005.9
20260507045041 59 312 1.0 2.0 0.01 0.04 0.01 95 1005.8
20260507043946 59 317 1.0 2.0 0.01 0.04 0.01 95 1005.8
20260507043005 59 327 0.0 1.0 0.01 0.04 0.01 95 1005.7
20260507041950 59 310 0.0 1.0 0.01 0.04 0.01 95 1005.7
20260507041027 59 314 0.0 1.0 0.01 0.04 0.01 94 1005.8
20260507035952 59 0.0 2.0 0.00 0.03 0.03 94 1005.9
20260507035031 58 262 3.0 5.0 0.00 0.03 0.03 93 1006.0
20260507033957 58 293 2.0 3.0 0.00 0.03 0.03 94 1006.0
20260507033035 58 301 1.0 2.0 0.00 0.03 0.03 94 1005.9
20260507032020 58 317 1.0 2.0 0.00 0.03 0.03 94 1005.8
20260507030946 58 305 2.0 6.0 0.00 0.03 0.03 94 1005.6
20260507030005 57 288 1.0 2.0 0.00 0.03 0.03 94 1005.6
20260507024950 57 282 1.0 3.0 0.00 0.03 0.03 94 1005.4
20260507024028 57 302 1.0 3.0 0.00 0.03 0.03 94 1005.6
20260507022953 57 304 2.0 3.0 0.00 0.03 0.03 94 1005.6
20260507022011 57 234 1.0 3.0 0.00 0.03 0.03 95 1005.7
20260507021016 57 168 2.0 5.0 0.00 0.03 0.03 95 1005.8
20260507020035 57 307 1.0 3.0 0.00 0.03 0.03 95 1005.6
20260507015000 57 308 1.0 2.0 0.00 0.03 0.03 95 1005.8
20260507014019 57 281 2.0 3.0 0.00 0.03 0.03 95 1005.9
20260507013005 57 309 1.0 3.0 0.00 0.03 0.03 95 1006.2
20260507011949 57 288 1.0 2.0 0.00 0.03 0.03 95 1006.2
20260507011007 57 296 2.0 5.0 0.00 0.03 0.03 95 1006.2
20260507005952 57 296 1.0 3.0 0.00 0.03 0.03 95 1006.2
20260507005010 57 283 1.0 5.0 0.00 0.03 0.03 94 1006.3
20260507003956 56 311 1.0 2.0 0.00 0.03 0.03 94 1006.2
20260507003014 56 295 1.0 3.0 0.00 0.03 0.03 94 1006.0
20260507002020 56 285 3.0 6.0 0.00 0.03 0.03 94 1005.9
20260507001020 56 324 0.0 2.0 0.00 0.03 0.03 94 1006.1
20260507000005 56 274 3.0 3.0 0.00 0.03 0.03 94 1005.9
20260506235023 56 271 2.0 7.0 0.00 0.03 0.03 94 1006.0
20260506234009 56 265 3.0 5.0 0.00 0.03 0.03 94 1005.7
20260506232955 56 259 2.0 7.0 0.00 0.03 0.03 94 1005.7
20260506232013 57 322 1.0 3.0 0.00 0.03 0.03 94 1005.9
20260506230958 57 275 1.0 5.0 0.00 0.03 0.03 94 1006.1
20260506230015 57 307 2.0 3.0 0.00 0.03 0.03 94 1005.9
20260506225000 57 295 2.0 3.0 0.01 0.03 0.03 94 1005.9
20260506224019 57 275 2.0 7.0 0.01 0.03 0.03 95 1005.9
20260506223005 57 307 3.0 6.0 0.01 0.03 0.03 94 1006.0
20260506222024 57 307 3.0 3.0 0.01 0.03 0.03 94 1006.2
20260506221010 58 310 1.0 3.0 0.01 0.03 0.03 93 1006.1
20260506220028 58 283 2.0 7.0 0.02 0.03 0.03 93 1006.3
20260506215014 59 287 2.0 5.0 0.02 0.02 0.02 92 1006.4
20260506214019 59 282 2.0 6.0 0.02 0.02 0.02 92 1006.5
20260506213018 59 295 2.0 5.0 0.02 0.02 0.02 92 1006.5
20260506212024 59 305 3.0 7.0 0.02 0.02 0.02 92 1006.7
20260506211042 59 302 1.0 5.0 0.02 0.02 0.02 92 1006.6
20260506210007 59 305 1.0 2.0 0.01 0.01 0.01 91 1006.6
20260506205026 60 294 2.0 5.0 0.00 0.00 0.00 89 1006.6
20260506204012 60 283 3.0 6.0 0.00 0.00 0.00 89 1006.9
20260506202923 61 291 2.0 7.0 0.00 0.00 0.00 88 1006.7
20260506201929 61 270 1.0 8.0 0.00 0.00 0.00 87 1006.7
20260506200927 62 300 2.0 5.0 0.00 0.00 0.00 86 1006.8
20260506195933 62 271 3.0 3.0 0.00 0.00 0.00 85 1007.0
20260506194932 63 275 4.0 9.0 0.00 0.00 0.00 82 1006.9
20260506193936 63 288 2.0 6.0 0.00 0.00 0.00 80 1007.1
20260506192934 64 303 2.0 3.0 0.00 0.00 0.00 79 1007.0
20260506191917 65 247 2.0 7.0 0.00 0.00 0.00 76 1007.0
20260506190936 65 288 4.0 6.0 0.00 0.00 0.00 73 1007.2
20260506185922 66 282 3.0 10.0 0.00 0.00 0.00 72 1007.1
20260506184927 66 277 3.0 8.0 0.00 0.00 0.00 72 1007.2
20260506183926 66 283 2.0 7.0 0.00 0.00 0.00 71 1007.1
20260506182932 67 274 4.0 8.0 0.00 0.00 0.00 71 1007.2
20260506181950 67 282 4.0 6.0 0.00 0.00 0.00 70 1007.2
20260506180934 67 275 5.0 8.0 0.00 0.00 0.00 71 1007.3
20260506175932 68 283 1.0 6.0 0.00 0.00 0.00 70 1007.6
20260506174937 68 278 4.0 8.0 0.00 0.00 0.00 68 1007.6
20260506173956 69 274 3.0 11.0 0.00 0.00 0.00 66 1007.9
20260506172921 69 274 5.0 10.0 0.00 0.00 0.00 67 1008.0
20260506171940 68 293 3.0 6.0 0.00 0.00 0.00 69 1007.7
20260506170925 68 279 3.0 7.0 0.00 0.00 0.00 69 1007.6
20260506165909 67 290 3.0 8.0 0.00 0.00 0.00 70 1008.0
20260506164926 68 305 3.0 8.0 0.00 0.00 0.00 69 1008.2
20260506163912 68 280 4.0 9.0 0.00 0.00 0.00 69 1008.4
20260506162930 67 238 3.0 7.0 0.00 0.00 0.00 70 1008.4
20260506161915 68 280 5.0 8.0 0.00 0.00 0.00 69 1008.8
20260506160933 69 279 4.0 8.0 0.00 0.00 0.00 68 1008.6
20260506155917 68 302 2.0 6.0 0.00 0.00 0.00 68 1008.8
20260506154936 68 255 4.0 8.0 0.00 0.00 0.00 68 1008.9
20260506153920 69 288 3.0 7.0 0.00 0.00 0.00 68 1009.1
20260506152938 68 270 3.0 6.0 0.00 0.00 0.00 68 1009.3
20260506151923 68 291 3.0 6.0 0.00 0.00 0.00 69 1009.4
20260506151000 69 261 6.0 11.0 0.00 0.00 0.00 68 1009.4
20260506145923 69 284 4.0 8.0 0.00 0.00 0.00 68 1009.4
20260506144941 68 277 4.0 9.0 0.00 0.00 0.00 69 1009.3
20260506143926 68 289 4.0 6.0 0.00 0.00 0.00 69 1009.3
20260506142944 68 283 4.0 7.0 0.00 0.00 0.00 70 1009.2
20260506141930 67 302 2.0 8.0 0.00 0.00 0.00 71 1009.2
20260506140947 66 214 2.0 7.0 0.00 0.00 0.00 72 1009.3
20260506135932 66 294 2.0 6.0 0.00 0.00 0.00 74 1009.2
20260506134918 65 270 2.0 5.0 0.00 0.00 0.00 74 1009.2
20260506133937 65 245 2.0 7.0 0.00 0.00 0.00 74 1009.7
20260506132922 65 298 3.0 5.0 0.00 0.00 0.00 75 1009.7
20260506131941 64 296 2.0 5.0 0.00 0.00 0.00 77 1009.8
20260506130927 63 280 2.0 5.0 0.00 0.00 0.00 79 1009.7
20260506125945 62 276 3.0 7.0 0.00 0.00 0.00 80 1009.8
20260506124929 61 293 3.0 6.0 0.00 0.00 0.00 81 1009.9
20260506123947 61 306 3.0 5.0 0.00 0.00 0.00 81 1009.9
20260506122953 61 291 5.0 8.0 0.00 0.00 0.00 82 1009.8
20260506121951 60 306 2.0 3.0 0.00 0.00 0.00 83 1009.6
20260506120935 60 299 3.0 6.0 0.00 0.00 0.00 84 1010.0
20260506115953 59 296 2.0 5.0 0.00 0.00 0.00 84 1010.2
20260506115045 59 276 3.0 6.0 0.00 0.00 0.00 84 1010.2
20260506113954 59 283 4.0 8.0 0.00 0.00 0.00 84 1010.3
20260506112959 59 281 3.0 5.0 0.00 0.00 0.00 85 1010.5
20260506111925 59 286 2.0 5.0 0.00 0.00 0.00 86 1010.2
20260506110943 58 316 1.0 5.0 0.00 0.00 0.00 87 1010.3
20260506105929 58 285 2.0 5.0 0.00 0.00 0.00 87 1010.3
20260506105007 58 294 3.0 5.0 0.00 0.00 0.00 87 1010.3
20260506103933 58 293 2.0 5.0 0.00 0.00 0.00 87 1010.4
20260506102952 58 285 1.0 3.0 0.00 0.00 0.00 86 1010.2
20260506101938 58 260 2.0 3.0 0.00 0.00 0.00 86 1010.3
20260506100957 58 283 3.0 6.0 0.00 0.00 0.00 86 1010.1
20260506095942 58 293 2.0 3.0 0.00 0.00 0.00 86 1010.0
20260506094927 58 309 1.0 5.0 0.00 0.00 0.00 86 1010.0
20260506094006 58 297 2.0 3.0 0.00 0.00 0.00 85 1010.0
20260506092931 58 277 3.0 6.0 0.00 0.00 0.00 86 1009.9
20260506091949 58 296 2.0 3.0 0.00 0.00 0.00 86 1009.9
20260506091035 58 286 1.0 3.0 0.00 0.00 0.00 85 1010.1
20260506090014 59 308 2.0 3.0 0.00 0.00 0.00 85 1010.3
20260506085000 59 317 1.0 5.0 0.00 0.00 0.00 85 1010.2
20260506084018 59 284 1.0 3.0 0.00 0.00 0.00 84 1010.3
20260506082943 59 245 3.0 6.0 0.00 0.00 0.00 84 1010.3
20260506082001 59 307 1.0 5.0 0.00 0.00 0.00 83 1010.2
20260506081026 60 298 1.0 3.0 0.00 0.00 0.00 83 1010.1
20260506072953 60 261 2.0 8.0 0.00 0.00 0.00 82 1010.0
20260506071938 60 265 3.0 7.0 0.00 0.00 0.00 82 1010.1
20260506071017 60 307 1.0 5.0 0.00 0.00 0.00 81 1010.0
20260506061948 60 270 4.0 8.0 0.00 0.00 0.00 79 1010.0
20260506061007 60 286 2.0 5.0 0.00 0.00 0.00 78 1009.8